TimeCDT,TemperatureF,Dew PointF,Humidity,Sea Level PressureIn,VisibilityMPH,Wind Direction,Wind SpeedMPH,Gust SpeedMPH,PrecipitationIn,Events,Conditions,WindDirDegrees,DateUTC
12:15 AM,63.0,57.2,81,29.64,10.0,East,5.8,-,N/A,,Scattered Clouds,90,2013-05-21 05:15:00
12:35 AM,64.4,58.1,80,29.62,10.0,ENE,6.9,-,N/A,Rain-Thunderstorm,Light Thunderstorms and Rain,70,2013-05-21 05:35:00
12:55 AM,63.5,58.5,84,29.60,10.0,East,6.9,-,N/A,,Mostly Cloudy,90,2013-05-21 05:55:00
1:15 AM,64.6,59.0,82,29.60,10.0,ESE,5.8,-,N/A,Rain,Light Rain,110,2013-05-21 06:15:00
1:35 AM,65.5,58.5,78,29.59,10.0,SE,8.1,-,N/A,Thunderstorm,Mostly Cloudy,130,2013-05-21 06:35:00
2:15 AM,64.4,59.9,85,29.60,10.0,South,4.6,-,N/A,,Drizzle,180,2013-05-21 07:15:00
2:17 AM,64.4,60.8,88,29.61,10.0,SSW,5.8,-,N/A,,Light Drizzle,200,2013-05-21 07:17:00
2:35 AM,64.0,60.1,87,29.60,10.0,SSE,3.5,-,N/A,,Overcast,160,2013-05-21 07:35:00
2:55 AM,64.4,59.5,84,29.59,10.0,SSE,5.8,-,N/A,,Overcast,150,2013-05-21 07:55:00
3:15 AM,64.9,58.6,80,29.59,10.0,South,8.1,-,N/A,,Overcast,180,2013-05-21 08:15:00
3:35 AM,64.8,58.1,79,29.60,10.0,SW,9.2,-,N/A,,Overcast,230,2013-05-21 08:35:00
3:55 AM,62.8,57.4,82,29.59,10.0,SSW,3.5,-,N/A,Rain,Light Rain,200,2013-05-21 08:55:00
4:15 AM,62.2,56.7,82,29.57,10.0,SSE,4.6,-,N/A,,Overcast,160,2013-05-21 09:15:00
4:35 AM,61.5,56.7,84,29.57,10.0,SSE,8.1,-,N/A,,Overcast,160,2013-05-21 09:35:00
4:55 AM,61.2,57.0,86,29.61,10.0,SSW,10.4,16.1,N/A,,Overcast,210,2013-05-21 09:55:00
5:15 AM,60.4,56.7,87,29.60,10.0,SSW,6.9,-,N/A,,Overcast,200,2013-05-21 10:15:00
5:35 AM,59.9,56.5,88,29.61,10.0,South,9.2,-,N/A,,Mostly Cloudy,190,2013-05-21 10:35:00
5:55 AM,59.2,55.8,88,29.62,10.0,SSW,9.2,-,N/A,,Clear,200,2013-05-21 10:55:00
6:15 AM,59.4,55.6,87,29.62,10.0,SW,8.1,-,N/A,,Clear,220,2013-05-21 11:15:00
6:35 AM,60.3,55.8,85,29.63,10.0,SW,5.8,-,N/A,,Clear,220,2013-05-21 11:35:00
6:55 AM,61.5,55.9,82,29.62,10.0,SSW,6.9,-,N/A,,Clear,210,2013-05-21 11:55:00
7:15 AM,62.6,56.3,80,29.62,10.0,SW,5.8,-,N/A,,Scattered Clouds,220,2013-05-21 12:15:00
7:35 AM,63.0,55.8,77,29.63,10.0,SW,6.9,-,N/A,,Scattered Clouds,220,2013-05-21 12:35:00
7:55 AM,63.3,56.3,78,29.63,10.0,SSW,8.1,-,N/A,,Mostly Cloudy,200,2013-05-21 12:55:00
8:15 AM,63.9,57.0,78,29.63,10.0,SSW,12.7,17.3,N/A,,Overcast,210,2013-05-21 13:15:00
8:35 AM,63.5,57.0,79,29.63,10.0,South,9.2,18.4,N/A,,Overcast,190,2013-05-21 13:35:00
8:55 AM,64.2,57.2,78,29.63,10.0,SSW,9.2,-,N/A,,Overcast,200,2013-05-21 13:55:00
9:15 AM,64.6,57.0,76,29.63,10.0,SSW,11.5,-,N/A,,Overcast,200,2013-05-21 14:15:00
9:35 AM,66.0,57.2,73,29.62,10.0,SSE,6.9,-,N/A,,Mostly Cloudy,160,2013-05-21 14:35:00
9:55 AM,66.9,57.4,71,29.62,10.0,South,5.8,-,N/A,,Scattered Clouds,170,2013-05-21 14:55:00
10:15 AM,67.3,58.1,72,29.62,10.0,SSW,8.1,-,N/A,,Overcast,200,2013-05-21 15:15:00
10:35 AM,67.5,58.3,72,29.62,10.0,South,9.2,-,N/A,,Overcast,190,2013-05-21 15:35:00
10:55 AM,67.3,58.1,72,29.62,10.0,South,9.2,-,N/A,,Overcast,170,2013-05-21 15:55:00
11:15 AM,67.1,58.8,75,29.62,10.0,South,11.5,-,N/A,Rain,Rain,190,2013-05-21 16:15:00
11:35 AM,67.1,59.0,75,29.61,10.0,WSW,8.1,-,N/A,,Overcast,250,2013-05-21 16:35:00
11:55 AM,62.1,59.5,91,29.63,4.0,SW,9.2,-,0.09,Rain,Light Rain,230,2013-05-21 16:55:00
12:15 PM,65.1,61.2,87,29.62,10.0,SW,9.2,16.1,N/A,,Overcast,220,2013-05-21 17:15:00
12:35 PM,66.4,60.3,81,29.61,10.0,SSW,10.4,17.3,N/A,,Overcast,210,2013-05-21 17:35:00
12:55 PM,67.1,58.1,73,29.60,10.0,SW,13.8,-,N/A,,Overcast,230,2013-05-21 17:55:00
1:15 PM,68.0,57.6,69,29.61,10.0,SSW,16.1,23.0,N/A,,Overcast,200,2013-05-21 18:15:00
1:35 PM,69.8,57.2,64,29.61,10.0,SSW,18.4,23.0,N/A,,Overcast,200,2013-05-21 18:35:00
1:55 PM,71.4,56.8,60,29.61,10.0,SSW,16.1,23.0,N/A,,Mostly Cloudy,200,2013-05-21 18:55:00
2:15 PM,69.1,55.0,61,29.62,10.0,SW,16.1,21.9,N/A,,Mostly Cloudy,220,2013-05-21 19:15:00
2:35 PM,69.4,55.0,60,29.62,10.0,SSW,15.0,20.7,N/A,,Overcast,210,2013-05-21 19:35:00
2:55 PM,71.2,55.2,57,29.62,10.0,SSW,15.0,24.2,N/A,,Mostly Cloudy,210,2013-05-21 19:55:00
3:15 PM,72.9,54.9,53,29.62,10.0,SSW,15.0,23.0,N/A,,Scattered Clouds,200,2013-05-21 20:15:00
3:35 PM,71.2,55.4,57,29.62,10.0,SW,16.1,23.0,N/A,,Mostly Cloudy,220,2013-05-21 20:35:00
3:55 PM,70.9,54.5,56,29.63,10.0,SW,17.3,23.0,N/A,,Mostly Cloudy,220,2013-05-21 20:55:00
4:15 PM,70.7,54.9,57,29.63,10.0,SW,12.7,17.3,N/A,,Overcast,220,2013-05-21 21:15:00
4:35 PM,69.8,54.7,59,29.64,10.0,SW,15.0,20.7,N/A,,Overcast,220,2013-05-21 21:35:00
4:55 PM,69.1,55.4,62,29.64,10.0,SW,11.5,17.3,N/A,,Overcast,230,2013-05-21 21:55:00
5:15 PM,70.3,54.9,58,29.64,10.0,WSW,11.5,18.4,N/A,,Mostly Cloudy,250,2013-05-21 22:15:00
5:35 PM,69.1,53.4,57,29.65,10.0,WSW,12.7,19.6,N/A,,Mostly Cloudy,240,2013-05-21 22:35:00
5:55 PM,70.0,54.0,57,29.65,10.0,WSW,12.7,-,N/A,,Scattered Clouds,240,2013-05-21 22:55:00
6:15 PM,69.6,54.7,59,29.65,10.0,WSW,11.5,-,N/A,,Scattered Clouds,240,2013-05-21 23:15:00
6:35 PM,69.4,55.0,60,29.65,10.0,SW,9.2,-,N/A,,Mostly Cloudy,220,2013-05-21 23:35:00
6:55 PM,68.9,53.2,57,29.66,10.0,WSW,12.7,19.6,N/A,,Mostly Cloudy,250,2013-05-21 23:55:00
7:15 PM,68.0,53.1,59,29.66,10.0,WSW,8.1,-,N/A,,Mostly Cloudy,250,2013-05-22 00:15:00
7:35 PM,67.1,53.2,61,29.66,10.0,West,5.8,-,N/A,,Scattered Clouds,270,2013-05-22 00:35:00
7:55 PM,66.2,53.4,63,29.66,10.0,West,9.2,-,N/A,,Mostly Cloudy,260,2013-05-22 00:55:00
8:15 PM,65.7,53.6,65,29.68,10.0,WSW,5.8,-,N/A,,Overcast,250,2013-05-22 01:15:00
8:35 PM,65.3,54.0,67,29.69,10.0,WSW,4.6,-,N/A,,Overcast,250,2013-05-22 01:35:00
8:55 PM,64.9,54.0,68,29.69,10.0,WSW,4.6,-,N/A,,Overcast,240,2013-05-22 01:55:00
9:15 PM,64.8,54.1,68,29.71,10.0,West,6.9,-,N/A,,Overcast,260,2013-05-22 02:15:00
9:35 PM,64.4,54.0,69,29.71,10.0,WSW,4.6,-,N/A,,Overcast,250,2013-05-22 02:35:00
9:55 PM,63.9,53.8,70,29.71,10.0,West,3.5,-,N/A,,Overcast,260,2013-05-22 02:55:00
10:15 PM,63.7,53.4,69,29.71,10.0,WSW,5.8,-,N/A,,Overcast,250,2013-05-22 03:15:00
10:35 PM,63.5,53.6,70,29.71,10.0,WSW,3.5,-,N/A,,Overcast,250,2013-05-22 03:35:00
10:55 PM,63.0,53.6,71,29.70,10.0,Calm,Calm,-,N/A,,Overcast,0,2013-05-22 03:55:00
11:15 PM,61.0,54.1,78,29.69,10.0,Calm,Calm,-,N/A,,Overcast,0,2013-05-22 04:15:00
11:35 PM,60.1,53.6,79,29.70,10.0,Calm,Calm,-,N/A,,Overcast,0,2013-05-22 04:35:00
11:55 PM,59.2,54.0,83,29.69,10.0,Calm,Calm,-,N/A,,Mostly Cloudy,0,2013-05-22 04:55:00